Regional Weather Roundup
Issued by NWS

Home | Current Version | Previous Version | Text Only | Print | Product List | Glossary On
Versions: 1 2 3 4 5 6 7 8 9 10 11 12 13 14 15 16 17 18 19 20 21 22 23 24 25 26 27 28 29 30 31 32 33 34 35 36 37 38 39 40 41 42 43 44 45 46 47 48 49 50
000
ASUS43 KTOP 252208
RWRKS

WEATHER ROUNDUP FOR KANSAS
NATIONAL WEATHER SERVICE GOODLAND KS
500 PM CDT SAT OCT 25 2014

NOTE:  "FAIR" INDICATES FEW OR NO CLOUDS BELOW 12,000 FEET WITH NO
SIGNIFICANT WEATHER AND/OR OBSTRUCTIONS TO VISIBILITY.

KSZ001>006-013>018-027>032-041>047-252300-
NORTHWEST KANSAS

CITY           SKY/WX    TMP DP  RH WIND       PRES   REMARKS
GOODLAND       SUNNY     84  40  21 S13       30.02F
HAYS           SUNNY     88  48  25 S12       29.99S
HILL CITY      SUNNY     88  45  22 S12       29.99F
RUSSELL        SUNNY     87  49  26 SE12      29.97F
$$

KSZ061>065-074>080-084>089-252300-
SOUTHWEST KANSAS

CITY           SKY/WX    TMP DP  RH WIND       PRES   REMARKS
DODGE CITY     SUNNY     88  45  22 S16G24    30.01F
ELKHART          N/A     89  38  16 S10         N/A
GARDEN CITY    SUNNY     88  41  19 S12       30.00F
GREAT BEND     SUNNY     88  52  29 S15       29.98F
LIBERAL        SUNNY     90  43  19 S14G21    30.02F
PRATT          SUNNY     88  45  22 SW9       30.02S
$$

KSZ066>073-081>083-090>101-252300-
SOUTHEAST KANSAS

CITY           SKY/WX    TMP DP  RH WIND       PRES   REMARKS
CHANUTE        SUNNY     83  65  54 S8        30.01F
COFFEYVILLE    SUNNY     83  63  50 S8        30.01F
HUTCHINSON     SUNNY     88  56  33 S13       30.00F
MEDICINE LODGE   N/A     87  56  34 S7        29.99F
NEWTON         SUNNY     88  54  31 S10       30.03S
PARSONS        SUNNY     84  64  50 S6        30.02F
WICHITA INTL   SUNNY     89  57  33 S12       29.99F
WICHITA JABRA  SUNNY     87  56  34 S12       30.00F
WICHITA MCCONL SUNNY     88  57  34 SE10      30.01S
WINFIELD       SUNNY     86  60  41 S9        30.01F
$$

KSZ007>012-019>026-033>040-048>060-102>105-252300-
NORTHEAST KANSAS

CITY           SKY/WX    TMP DP  RH WIND       PRES   REMARKS
CONCORDIA      SUNNY     82  59  45 E9        29.99F
EMPORIA        SUNNY     85  61  44 SE10      30.00F
LAWRENCE       SUNNY     80  58  46 E5        30.01F
MANHATTAN      SUNNY     84  63  49 E8        29.98F
MARYSVILLE     SUNNY     79  54  41 E7        30.01F
OLATHE IND     SUNNY     79  58  48 SE6       30.03S
OLATHE EXE     SUNNY     79  58  48 S6        30.02S
SALINA         SUNNY     88  57  34 S9        29.97F
TOPEKA BILLARD SUNNY     82  57  42 E7        30.01F
TOPEKA FORBES  SUNNY     80  62  54 E7        30.01F
$$



USA.gov is the U.S. government's official web portal to all federal, state and local government web resources and services.